UTC,SampNum,MM/DD/YYYY,HH:MM:SS,VbatMain,VbiasPos,VbiasNeg,TC_cont,Humidity,Vrse,Vrse_std,Vk,Vk_std,Ik,Ib,Opt_PN,Opt_SN,Moxy,O2satper,TC_opt,Dphase,Bphase,Rphase,Bamp,Bpot,Ramp,Opt_rawtemp,TC_MCat,Cond,Pres,pSal,day_MC,month_MC,year_MC,time_MC,pH,CHa,NTU,flow,unix_time,TC_cont_flg,Moxy_flg,O2satper_flg,pSal_flg,pH_flg,CHa_flg,NTU_flg
2024-01-01 00:00:02+00:00,#0002108,01/01/2024,00:01:49,10.61,3.63,-3.57,15.56,38,-0.94136,1.4e-005,-0.883791,0.000285,-3.6,-2.682,5730,1914,216.184,68.301,14.77,34.425,35.174,41.854,6.68,886.8,678.5,391.2,14.7904,3.67246,0.183,29.5777,1,Jan,2024,00:04:42,7.87991894576322,,,1.45333333333333,1704067202,2,2,2,2,2,9,9
2024-01-01 00:20:01+00:00,#0002109,01/01/2024,00:21:49,10.59,3.63,-3.57,15.56,38,-0.941538,6e-006,-0.883911,0.000136,-0.57,-2.737,5730,1914,216.642,68.423,14.754,34.407,35.156,41.833,6.677,886.1,678.5,391.7,14.7583,3.70057,0.183,29.8539,1,Jan,2024,00:24:42,7.88094543726988,,,2.10666666666667,1704068401,2,2,2,2,1,9,9
2024-01-01 00:40:02+00:00,#0002110,01/01/2024,00:41:50,10.58,3.63,-3.57,15.3,38,-0.941944,1.3e-005,-0.884041,0.000125,-10.06,-2.653,5730,1914,214.494,67.757,14.762,34.52,35.269,41.951,6.682,890,678.5,391.4,14.7856,3.69469,0.182,29.7803,1,Jan,2024,00:44:43,7.87665077643223,,,4.29333333333333,1704069602,2,2,2,2,1,9,9
2024-01-01 01:00:02+00:00,#0002111,01/01/2024,01:01:49,10.58,3.63,-3.57,15.43,38,-0.942038,9e-006,-0.883964,0.000248,-7.13,-2.651,5730,1914,212.602,67.17,14.77,34.621,35.37,42.049,6.679,893.1,678.5,391.2,14.8047,3.67727,0.182,29.6099,1,Jan,2024,01:04:43,7.87051016518194,,,33.84,1704070802,2,2,2,2,1,9,9
2024-01-01 01:20:02+00:00,#0002112,01/01/2024,01:21:49,10.57,3.63,-3.57,15.18,38,-0.942221,8e-006,-0.88392,7.2e-005,-4.2,-2.655,5730,1914,212.037,66.988,14.767,34.654,35.403,42.08,6.677,894.2,678.5,391.2,14.787,3.65392,0.186,29.4145,1,Jan,2024,01:24:42,7.868108706123,,,0.373333333333333,1704072002,2,2,2,2,2,9,9
2024-01-01 01:40:02+00:00,#0002113,01/01/2024,01:41:49,10.59,3.63,-3.57,15.43,38,-0.942183,1.7e-005,-0.883924,0.00017,-8.4,-2.655,5730,1914,208.71,65.941,14.77,34.839,35.588,42.266,6.678,900.2,678.5,391.1,14.7969,3.6946,0.187,29.7709,1,Jan,2024,01:44:43,7.87039006107005,,,10.5466666666667,1704073202,2,2,2,2,1,9,9
2024-01-01 02:00:02+00:00,#0002114,01/01/2024,02:01:49,10.58,3.63,-3.57,15.3,38,-0.942328,9e-006,-0.884023,0.000266,-5.83,-2.648,5730,1914,210.007,66.325,14.753,34.773,35.522,42.202,6.68,898.1,678.5,391.7,14.7667,3.68113,0.188,29.6733,1,Jan,2024,02:04:42,7.86833850352035,,,9.12,1704074402,2,2,2,2,1,9,9
2024-01-01 02:20:02+00:00,#0002115,01/01/2024,02:21:50,10.61,3.63,-3.57,15.56,38,-0.942482,1.1e-005,-0.884033,9.5e-005,-10.71,-2.672,5730,1914,207.169,65.413,14.742,34.939,35.688,42.368,6.68,903.4,678.5,392.1,14.7484,3.68525,0.187,29.7241,1,Jan,2024,02:24:43,7.86252670312846,,,2.90666666666667,1704075602,2,2,2,2,1,9,9
2024-01-01 02:40:01+00:00,#0002116,01/01/2024,02:41:49,10.59,3.63,-3.57,15.43,38,-0.942607,1e-005,-0.884286,0.000311,-2.56,-2.679,5730,1914,207.791,65.617,14.747,34.901,35.65,42.33,6.68,902.1,678.6,391.9,14.769,3.64092,0.188,29.3118,1,Jan,2024,02:44:42,7.85608647692384,,,9.38666666666667,1704076801,2,2,2,2,1,9,9
2024-01-01 03:00:02+00:00,#0002117,01/01/2024,03:01:49,10.55,3.63,-3.57,15.18,38,-0.942742,1.5e-005,-0.884163,0.00014,-7.15,-2.638,5730,1914,205.944,65.018,14.736,35.011,35.76,42.44,6.68,905.7,678.6,392.3,14.7516,3.70562,0.189,29.9043,1,Jan,2024,03:04:42,7.86635347024847,,,6.21333333333333,1704078002,2,2,2,2,1,9,9
2024-01-01 03:20:02+00:00,#0002118,01/01/2024,03:21:50,10.59,3.63,-3.57,15.56,38,-0.943084,1.1e-005,-0.884349,0.000217,0.7,-2.636,5730,1914,203.463,64.233,14.735,35.155,35.904,42.581,6.677,910.4,678.7,392.3,14.7488,3.67267,0.19,29.6111,1,Jan,2024,03:24:43,7.85032517356048,,,5.58666666666667,1704079202,2,2,2,2,1,9,9
2024-01-01 03:40:02+00:00,#0002119,01/01/2024,03:41:49,10.58,3.63,-3.57,15.43,38,-0.943025,1.8e-005,-0.884557,0.000299,-8.27,-2.627,5730,1914,197.667,62.393,14.727,35.5,36.249,42.927,6.679,921.6,678.7,392.6,14.7314,3.64781,0.19,29.4017,1,Jan,2024,03:44:42,7.85014224667912,,,0.213333333333333,1704080402,2,2,2,2,2,9,9
2024-01-01 04:00:01+00:00,#0002120,01/01/2024,04:01:49,10.56,3.63,-3.57,15.18,38,-0.943118,1.1e-005,-0.884504,0.00027,-17.15,-2.669,5730,1914,200.079,63.152,14.725,35.357,36.106,42.784,6.678,916.8,678.7,392.6,14.7238,3.69086,0.189,29.7932,1,Jan,2024,04:04:42,7.85811979996972,,,0.106666666666667,1704081601,2,2,2,2,2,9,9
2024-01-01 04:20:01+00:00,#0002121,01/01/2024,04:21:49,10.58,3.63,-3.57,15.43,38,-0.942796,9e-006,-0.884191,0.000252,-6.48,-2.651,5730,1914,201.266,63.54,14.735,35.283,36.032,42.709,6.677,914.7,678.8,392.3,14.7465,3.64702,0.19,29.3833,1,Jan,2024,04:24:42,7.85386426067687,,,5.69333333333333,1704082801,2,2,2,2,1,9,9
2024-01-01 04:40:01+00:00,#0002122,01/01/2024,04:41:49,10.56,3.63,-3.57,15.18,38,-0.942021,1.3e-005,-0.8839,0.000254,-4.36,-2.666,5730,1914,205.117,64.73,14.716,35.067,35.816,42.492,6.675,907.6,678.8,392.9,14.7166,3.66737,0.189,29.5881,1,Jan,2024,04:44:42,7.87421823508085,,,5.6,1704084001,2,2,2,2,1,9,9
2024-01-01 05:00:02+00:00,#0002123,01/01/2024,05:01:50,10.58,3.63,-3.57,15.18,38,-0.9418,1.5e-005,-0.88369,0.000297,-15.17,-2.652,5730,1914,208.598,65.805,14.7,34.876,35.625,42.299,6.674,901.4,678.9,393.4,14.6985,3.66637,0.19,29.593,1,Jan,2024,05:04:43,7.87815482601889,,,5.4,1704085202,2,2,2,2,1,9,9
2024-01-01 05:20:02+00:00,#0002124,01/01/2024,05:21:50,10.59,3.63,-3.57,15.43,38,-0.94162,1e-005,-0.883681,8.2e-005,-5.47,-2.641,5730,1914,213.43,67.29,14.673,34.618,35.367,42.038,6.672,893.2,679,394.3,14.6518,3.74242,0.193,30.3122,1,Jan,2024,05:24:43,7.88827868028556,,,5.52,1704086402,2,2,2,2,1,9,9
2024-01-01 05:40:02+00:00,#0002125,01/01/2024,05:41:49,10.56,3.63,-3.57,15.18,38,-0.941454,7e-006,-0.883554,9.6e-005,-12.68,-2.69,5730,1914,215.712,68.035,14.691,34.485,35.234,41.906,6.672,889.1,679.2,393.7,14.6532,3.60342,0.193,29.0632,1,Jan,2024,05:44:42,7.87619847081625,,,3.34666666666667,1704087602,2,2,2,2,1,9,9
2024-01-01 06:00:02+00:00,#0002126,01/01/2024,06:01:49,10.58,3.63,-3.57,15.18,38,-0.941094,1.6e-005,-0.883245,0.000385,1.5,-2.645,5730,1914,217.019,68.443,14.687,34.415,35.164,41.837,6.673,886.5,679.2,393.8,14.694,3.62981,0.193,29.2688,1,Jan,2024,06:04:43,7.88560741080475,,,5.49333333333333,1704088802,2,2,2,2,1,9,9
2024-01-01 06:20:02+00:00,#0002127,01/01/2024,06:21:49,10.58,3.63,-3.57,15.18,38,-0.940903,1.2e-005,-0.883014,0.000286,-8.48,-2.671,5730,1914,218.419,68.869,14.677,34.344,35.093,41.764,6.671,884.1,679.1,394.2,14.6344,3.65261,0.193,29.5182,1,Jan,2024,06:24:43,7.89270890202227,,,6.08,1704090002,2,2,2,2,1,9,9
2024-01-01 06:40:02+00:00,#0002128,01/01/2024,06:41:49,10.56,3.63,-3.57,15.05,38,-0.940883,1.6e-005,-0.88326,0.000226,-7.67,-2.628,5730,1914,218.362,68.849,14.676,34.348,35.097,41.77,6.674,884.4,679.3,394.2,14.6324,3.86666,0.193,31.4494,1,Jan,2024,06:44:42,7.92357985949177,,,0.0133333333333333,1704091202,2,2,2,2,2,9,9
2024-01-01 07:00:02+00:00,#0002129,01/01/2024,07:01:50,10.58,3.63,-3.57,15.18,38,-0.940733,1.4e-005,-0.882903,0.000363,-11.77,-2.63,5730,1914,216.556,68.294,14.685,34.441,35.19,41.861,6.671,887.4,679.3,393.9,14.6958,3.67741,0.193,29.694,1,Jan,2024,07:04:43,7.89832172141809,,,5.49333333333333,1704092402,2,2,2,2,1,9,9
2024-01-01 07:20:02+00:00,#0002130,01/01/2024,07:21:49,10.59,3.63,-3.57,15.43,38,-0.9405,1e-005,-0.882729,0.000195,-12.24,-2.646,5730,1914,217.561,68.624,14.694,34.383,35.132,41.802,6.67,885.4,679.3,393.6,14.661,3.67283,0.193,29.6794,1,Jan,2024,07:24:42,7.89841242092503,,,0.266666666666667,1704093602,2,2,2,2,2,9,9
2024-01-01 07:40:02+00:00,#0002131,01/01/2024,07:41:49,10.58,3.63,-3.57,15.18,38,-0.940643,9e-006,-0.882968,0.000342,-9.07,-2.681,5730,1914,218.94,69.053,14.69,34.31,35.059,41.731,6.672,883.1,679.2,393.8,14.7015,3.71504,0.194,30.0274,1,Jan,2024,07:44:42,7.90487951525663,,,0.36,1704094802,2,2,2,2,2,9,9
2024-01-01 08:00:01+00:00,#0002132,01/01/2024,08:01:49,10.57,3.63,-3.57,15.18,38,-0.940519,1.5e-005,-0.882528,6.6e-005,-14.75,-2.653,5730,1914,217.553,68.59,14.673,34.393,35.142,41.815,6.673,885.7,679.3,394.3,14.6618,3.6652,0.194,29.6103,1,Jan,2024,08:04:42,7.90080588973462,,,0.04,1704096001,2,2,2,2,2,9,9
2024-01-01 08:20:02+00:00,#0002133,01/01/2024,08:21:50,10.59,3.63,-3.57,15.43,38,-0.94055,1.5e-005,-0.882733,0.000442,-3.09,-2.646,5730,1914,218.827,68.967,14.657,34.331,35.08,41.753,6.673,883.8,679.4,394.8,14.6641,3.6697,0.194,29.649,1,Jan,2024,08:24:43,7.89708350323974,,,0.28,1704097202,2,2,2,2,2,9,9
2024-01-01 08:40:02+00:00,#0002134,01/01/2024,08:41:49,10.58,3.63,-3.57,15.18,38,-0.940067,1e-005,-0.882099,0.000372,-13.48,-2.618,5730,1914,219.139,69.103,14.681,34.304,35.053,41.723,6.67,882.8,679.4,394,14.7024,3.65387,0.196,29.478,1,Jan,2024,08:44:42,7.90671641303159,,,0.0133333333333333,1704098402,2,2,2,2,2,9,9
2024-01-01 09:00:02+00:00,#0002135,01/01/2024,09:01:49,10.59,3.63,-3.57,15.43,38,-0.939684,1.1e-005,-0.881765,0.00024,-7.28,-2.685,5730,1914,219.715,69.289,14.685,34.271,35.02,41.694,6.674,881.8,679.3,393.9,14.7204,3.65104,0.196,29.439,1,Jan,2024,09:04:43,7.90905217146144,,,5.02666666666667,1704099602,2,2,2,2,1,9,9
2024-01-01 09:20:02+00:00,#0002136,01/01/2024,09:21:49,10.56,3.63,-3.57,15.18,38,-0.939648,1e-005,-0.881885,9e-005,-11.05,-2.612,5730,1914,224.953,70.942,14.685,33.995,34.744,41.415,6.671,873,679.3,393.9,14.672,3.63477,0.198,29.3297,1,Jan,2024,09:24:43,7.91180321720379,,,0.226666666666667,1704100802,2,2,2,2,2,9,9
2024-01-01 09:40:02+00:00,#0002137,01/01/2024,09:41:49,10.59,3.63,-3.57,15.43,38,-0.939522,9e-006,-0.881772,0.00017,-15.36,-2.681,5730,1914,225.731,71.207,14.698,33.949,34.698,41.371,6.673,871.5,679.3,393.5,14.7014,3.68614,0.198,29.768,1,Jan,2024,09:44:43,7.9168190775172,,,2.2,1704102002,2,2,2,2,1,9,9
2024-01-01 10:00:02+00:00,#0002138,01/01/2024,10:01:49,10.56,3.63,-3.57,15.18,38,-0.939195,1e-005,-0.881541,0.00014,-1.37,-2.66,5730,1914,226.719,71.537,14.71,33.893,34.642,41.312,6.671,869.5,679.3,393.1,14.7199,3.64574,0.2,29.3919,1,Jan,2024,10:04:43,7.92066046421276,,,0.0133333333333333,1704103202,2,2,2,2,2,9,9
2024-01-01 10:20:02+00:00,#0002139,01/01/2024,10:21:49,10.59,3.63,-3.57,15.43,38,-0.938854,1.1e-005,-0.881059,0.000293,-10.45,-2.629,5730,1914,223.122,70.432,14.729,34.071,34.82,41.494,6.674,875.5,679.1,392.5,14.7328,3.66583,0.199,29.562,1,Jan,2024,10:24:43,7.92539724161105,,,0.0933333333333333,1704104402,2,2,2,2,2,9,9
2024-01-01 10:40:02+00:00,#0002140,01/01/2024,10:41:49,10.57,3.63,-3.57,15.18,38,-0.938756,1.2e-005,-0.881107,0.000328,-3.78,-2.621,5730,1914,228.267,72.048,14.724,33.807,34.556,41.231,6.676,866.7,678.9,392.6,14.7503,3.65836,0.2,29.4819,1,Jan,2024,10:44:43,7.9296906531974,,,0.213333333333333,1704105602,2,2,2,2,2,9,9
2024-01-01 11:00:02+00:00,#0002141,01/01/2024,11:01:49,10.57,3.63,-3.57,14.92,38,-0.938569,1.1e-005,-0.88092,0.000244,-0.62,-2.611,5730,1914,230.907,72.834,14.694,33.685,34.434,41.111,6.677,862.8,678.9,393.6,14.6785,3.67667,0.2,29.7006,1,Jan,2024,11:04:43,7.940191678997,,,0.08,1704106802,2,2,2,2,2,9,9
2024-01-01 11:20:02+00:00,#0002142,01/01/2024,11:21:49,10.59,3.63,-3.57,15.43,38,-0.938592,8e-006,-0.880877,0.000222,-11.8,-2.71,5730,1914,230.997,72.889,14.711,33.673,34.422,41.095,6.673,862.5,679.1,393.1,14.7011,3.64681,0.199,29.4157,1,Jan,2024,11:24:43,7.92777224028866,,,0.2,1704108002,2,2,2,2,2,9,9
2024-01-01 11:40:02+00:00,#0002143,01/01/2024,11:41:49,10.59,3.63,-3.58,15.3,38,-0.938682,1.6e-005,-0.880999,6.7e-005,-10.53,-2.611,5730,1914,229.05,72.285,14.718,33.769,34.518,41.192,6.674,865.4,679,392.9,14.727,3.652,0.199,29.4426,1,Jan,2024,11:44:43,7.92857435858041,,,0.133333333333333,1704109202,2,2,2,2,2,9,9
2024-01-01 12:00:02+00:00,#0002144,01/01/2024,12:01:49,10.58,3.63,-3.57,15.18,38,-0.938761,6e-006,-0.881156,0.000326,-8.87,-2.592,5730,1914,231.136,72.932,14.711,33.666,34.415,41.086,6.671,862.3,679,393.1,14.7108,3.64063,0.199,29.353,1,Jan,2024,12:04:42,7.92765936220617,,,1.30666666666667,1704110402,2,2,2,2,2,9,9
2024-01-01 12:20:02+00:00,#0002145,01/01/2024,12:21:49,10.57,3.63,-3.57,15.18,38,-0.938863,6e-006,-0.881066,0.000156,-11.83,-2.586,5730,1914,231.157,72.893,14.682,33.678,34.427,41.099,6.672,862.5,679.1,394,14.6716,3.68614,0.199,29.7908,1,Jan,2024,12:24:42,7.93245873527318,,,0,1704111602,2,2,2,2,2,9,9
2024-01-01 12:40:02+00:00,#0002146,01/01/2024,12:41:49,10.58,3.63,-3.57,15.43,38,-0.938904,1.6e-005,-0.880739,0.000395,-4.33,-2.61,5730,1914,229.769,72.443,14.674,33.752,34.501,41.172,6.671,865,679.2,394.3,14.695,3.6991,0.2,29.8892,1,Jan,2024,12:44:42,7.92942306445046,,,0,1704112802,2,2,2,2,2,9,9
2024-01-01 13:00:02+00:00,#0002147,01/01/2024,13:01:50,10.59,3.63,-3.57,15.18,38,-0.938792,1.1e-005,-0.881086,0.000309,0.44,-2.625,5730,1914,228.809,72.141,14.675,33.8,34.549,41.221,6.671,866.6,679.2,394.3,14.6581,3.88859,0.201,31.6272,1,Jan,2024,13:04:43,7.96074101043886,,,0,1704114002,2,2,2,2,2,9,9
2024-01-01 13:20:02+00:00,#0002148,01/01/2024,13:21:49,10.58,3.63,-3.57,15.56,38,-0.939258,8e-006,-0.881216,8.4e-005,-1.66,-2.676,5730,1914,226.667,71.408,14.638,33.927,34.676,41.347,6.672,870.8,679.3,395.5,14.6191,3.64976,0.202,29.5042,1,Jan,2024,13:24:43,7.91550850975382,,,0.893333333333333,1704115202,2,2,2,2,2,9,9
2024-01-01 13:40:02+00:00,#0002149,01/01/2024,13:41:49,10.59,3.63,-3.57,15.43,38,-0.939718,1.1e-005,-0.881571,0.000485,-9.75,-2.563,5730,1914,226.97,71.461,14.61,33.923,34.672,41.341,6.669,870.6,679.5,396.4,14.5678,3.74079,0.203,30.363,1,Jan,2024,13:44:43,7.9222476311794,,,0,1704116402,2,2,2,2,2,9,9
2024-01-01 14:00:02+00:00,#0002150,01/01/2024,14:01:49,10.58,3.63,-3.57,15.43,38,-0.939916,9e-006,-0.881309,0.000275,-17.09,-2.664,5730,1914,223,70.211,14.61,34.13,34.879,41.548,6.67,877.4,679.7,396.4,14.6006,3.64766,0.205,29.4993,1,Jan,2024,14:04:43,7.90590784491742,,,0.36,1704117602,2,2,2,2,2,9,9
2024-01-01 14:20:02+00:00,#0002151,01/01/2024,14:21:49,10.59,3.63,-3.57,15.43,38,-0.940259,5e-006,-0.881701,0.000355,-3.27,-2.639,5730,1914,220.883,69.557,14.619,34.238,34.987,41.655,6.668,880.8,679.8,396.1,14.6162,3.65908,0.205,29.5902,1,Jan,2024,14:24:43,7.90128340808719,,,0,1704118802,2,2,2,2,2,9,9
2024-01-01 14:40:01+00:00,#0002152,01/01/2024,14:41:49,10.58,3.63,-3.57,15.43,38,-0.940138,1.3e-005,-0.881552,0.000189,-11.49,-2.652,5730,1914,218.92,68.938,14.618,34.343,35.092,41.761,6.669,884.4,679.8,396.1,14.6241,3.72209,0.207,30.1507,1,Jan,2024,14:44:42,7.91176559938124,,,0.306666666666667,1704120001,2,2,2,2,2,9,9
2024-01-01 15:00:02+00:00,#0002153,01/01/2024,15:01:49,10.58,3.63,-3.57,14.92,38,-0.939925,8e-006,-0.881387,0.000313,-7.36,-2.663,5730,1914,219.808,69.172,14.587,34.309,35.058,41.726,6.668,883.2,679.8,397.1,14.5451,3.64739,0.208,29.5391,1,Jan,2024,15:04:43,7.91403950753138,,,0.133333333333333,1704121202,2,2,2,2,2,9,9
2024-01-01 15:20:01+00:00,#0002154,01/01/2024,15:21:48,10.57,3.63,-3.57,14.92,38,-0.939736,6e-006,-0.880894,0.000286,-15.09,-2.626,5730,1914,223.403,70.252,14.554,34.133,34.882,41.547,6.665,877.6,679.9,398.2,14.5237,3.62225,0.209,29.3292,1,Jan,2024,15:24:42,7.91417793699506,,,0,1704122401,2,2,2,2,2,9,9
2024-01-01 15:40:01+00:00,#0002155,01/01/2024,15:41:48,10.6,3.63,-3.57,15.18,38,-0.939384,1.1e-005,-0.880551,0.000185,-3.06,-2.677,5730,1914,223.098,70.196,14.58,34.137,34.886,41.55,6.663,877.8,680.3,397.3,14.5752,3.60948,0.211,29.1759,1,Jan,2024,15:44:42,7.91409069192618,,,1.17333333333333,1704123601,2,2,2,2,2,9,9
2024-01-01 16:00:01+00:00,#0002156,01/01/2024,16:01:49,10.56,3.63,-3.57,15.18,38,-0.938953,1.1e-005,-0.880519,0.000361,-6.93,-2.594,5730,1914,222.18,69.964,14.617,34.17,34.919,41.583,6.664,878.9,680.3,396.1,14.6259,3.57403,0.213,28.8204,1,Jan,2024,16:04:42,7.91621717935317,,,0.106666666666667,1704124801,2,2,2,2,2,9,9
2024-01-01 16:20:02+00:00,#0002157,01/01/2024,16:21:49,10.59,3.63,-3.57,15.43,38,-0.938984,1.3e-005,-0.880565,0.000117,-8.25,-2.721,5730,1914,224.227,70.611,14.619,34.061,34.81,41.474,6.664,875.2,680,396.1,14.6153,3.63712,0.216,29.3936,1,Jan,2024,16:24:43,7.9205932668441,,,2.73333333333333,1704126002,2,2,2,2,1,9,9
2024-01-01 16:40:02+00:00,#0002158,01/01/2024,16:41:49,10.59,3.63,-3.57,15.3,38,-0.938859,1.2e-005,-0.880312,0.000351,-4.75,-2.581,5730,1914,225.195,70.939,14.634,34.004,34.753,41.42,6.667,873.5,680,395.6,14.642,3.58224,0.219,28.8819,1,Jan,2024,16:44:43,7.91698687916698,,,0.36,1704127202,2,2,2,2,2,9,9
2024-01-01 17:00:02+00:00,#0002159,01/01/2024,17:01:49,10.58,3.63,-3.57,15.18,38,-0.938921,1.6e-005,-0.880407,0.00043,-9.07,-2.629,5730,1914,226.592,71.389,14.641,33.929,34.678,41.343,6.665,870.9,679.9,395.4,14.6587,3.59053,0.219,28.9437,1,Jan,2024,17:04:43,7.91865643292243,,,0,1704128402,2,2,2,2,2,9,9
2024-01-01 17:20:02+00:00,#0002160,01/01/2024,17:21:49,10.59,3.63,-3.57,15.3,38,-0.93895,1.2e-005,-0.880122,0.000295,-8.77,-2.627,5730,1914,223.17,70.355,14.669,34.095,34.844,41.509,6.665,876.1,679.7,394.4,14.6681,3.55371,0.22,28.6077,1,Jan,2024,17:24:43,7.9112064531836,,,0.346666666666667,1704129602,2,2,2,2,2,9,9
2024-01-01 17:40:02+00:00,#0002161,01/01/2024,17:41:49,10.56,3.63,-3.57,15.18,38,-0.939127,8e-006,-0.880144,0.000385,-3.81,-2.649,5730,1914,223.616,70.49,14.666,34.073,34.822,41.486,6.664,875.6,679.5,394.6,14.6591,3.50436,0.222,28.1739,1,Jan,2024,17:44:43,7.90323704529517,,,0,1704130802,2,2,2,2,2,9,9
2024-01-01 18:00:01+00:00,#0002162,01/01/2024,18:01:48,10.61,3.63,-3.57,15.43,38,-0.939281,4e-006,-0.880227,0.000307,-17.92,-2.585,5730,1914,224.949,70.93,14.678,33.998,34.747,41.415,6.668,873.1,679.5,394.1,14.682,3.58626,0.222,28.8882,1,Jan,2024,18:04:42,7.90775059539112,,,0.4,1704132001,2,2,2,2,2,9,9
2024-01-01 18:20:02+00:00,#0002163,01/01/2024,18:21:49,10.57,3.63,-3.57,15.18,38,-0.939482,1.1e-005,-0.880387,0.000354,0.2,-2.677,5730,1914,219.861,69.392,14.723,34.247,34.996,41.663,6.667,881.1,679.4,392.7,14.7451,3.52898,0.223,28.3309,1,Jan,2024,18:24:43,7.89945835582188,,,0.68,1704133202,2,2,2,2,2,9,9
2024-01-01 18:40:02+00:00,#0002164,01/01/2024,18:41:49,10.57,3.63,-3.57,15.18,38,-0.939588,1.5e-005,-0.880552,0.000398,-1.58,-2.611,5730,1914,221.922,70.098,14.759,34.122,34.871,41.544,6.673,877,679.1,391.5,14.7809,3.60665,0.223,28.9968,1,Jan,2024,18:44:42,7.9078057767791,,,0.0666666666666667,1704134402,2,2,2,2,2,9,9
2024-01-01 19:00:01+00:00,#0002165,01/01/2024,19:01:49,10.59,3.63,-3.57,15.43,38,-0.939552,1.5e-005,-0.880526,0.000242,-8.77,-2.543,5730,1914,217.43,68.732,14.794,34.347,35.096,41.771,6.675,884.3,678.8,390.4,14.8362,3.6736,0.222,29.5532,1,Jan,2024,19:04:42,7.91307499745593,,,2.01333333333333,1704135601,2,2,2,2,1,9,9
2024-01-01 19:20:02+00:00,#0002166,01/01/2024,19:21:49,10.59,3.63,-3.57,15.69,38,-0.93971,1.7e-005,-0.880468,0.000326,2.73,-2.657,5730,1914,219.506,69.401,14.803,34.231,34.98,41.661,6.68,880.3,678.4,390.1,14.8324,3.65633,0.22,29.4018,1,Jan,2024,19:24:43,7.90411803285364,,,5.68,1704136802,2,2,2,2,1,9,9
2024-01-01 19:40:02+00:00,#0002167,01/01/2024,19:41:49,10.58,3.63,-3.57,15.56,38,-0.939879,1.4e-005,-0.880673,0.000295,7.63,-2.567,5730,1914,216.7,68.518,14.805,34.381,35.13,41.81,6.68,885.1,678.2,390,14.8088,3.68081,0.217,29.6384,1,Jan,2024,19:44:42,7.90668223234553,,,3.25333333333333,1704138002,2,2,2,2,1,9,9
2024-01-01 20:00:02+00:00,#0002168,01/01/2024,20:01:49,10.58,3.63,-3.57,15.82,38,-0.940105,6e-006,-0.880597,0.000121,-2.75,-2.595,5730,1914,212.372,67.132,14.794,34.624,35.373,42.052,6.68,893.2,678.2,390.4,14.8281,3.68693,0.214,29.6785,1,Jan,2024,20:04:43,7.89941997933307,,,5.56,1704139202,2,2,2,2,1,9,9
2024-01-01 20:20:02+00:00,#0002169,01/01/2024,20:21:49,10.57,3.63,-3.57,15.43,38,-0.940391,1.2e-005,-0.880682,0.000144,-4.49,-2.615,5730,1914,217.829,68.817,14.767,34.337,35.086,41.763,6.677,883.7,678.2,391.2,14.7847,3.65427,0.209,29.4193,1,Jan,2024,20:24:43,7.89640826151954,,,5.34666666666667,1704140402,2,2,2,2,1,9,9
2024-01-01 20:40:02+00:00,#0002170,01/01/2024,20:41:49,10.58,3.63,-3.57,15.3,38,-0.940741,1e-005,-0.880741,0.000202,-7.18,-2.633,5730,1914,215.863,68.221,14.784,34.436,35.185,41.864,6.679,887.1,678.3,390.7,14.8147,3.68223,0.208,29.6466,1,Jan,2024,20:44:43,7.8956662646139,,,18.1333333333333,1704141602,2,2,2,2,1,9,9
2024-01-01 21:00:01+00:00,#0002171,01/01/2024,21:01:48,10.56,3.63,-3.57,15.3,38,-0.940951,1.3e-005,-0.880924,0.000101,-5.19,-2.636,5730,1914,206.534,65.287,14.794,34.952,35.701,42.38,6.679,903.6,678.3,390.4,14.8353,3.64346,0.207,29.2847,1,Jan,2024,21:04:42,7.88654761126646,,,0.226666666666667,1704142801,2,2,2,2,2,9,9
2024-01-01 21:20:02+00:00,#0002172,01/01/2024,21:21:49,10.58,3.63,-3.57,15.43,38,-0.941096,1.4e-005,-0.880738,0.000508,-4.8,-2.61,5730,1914,207.44,65.583,14.801,34.897,35.646,42.328,6.681,901.7,678.2,390.2,14.8459,3.70129,0.205,29.7934,1,Jan,2024,21:24:43,7.8897102265415,,,0.0933333333333333,1704144002,2,2,2,2,2,9,9
2024-01-01 21:40:02+00:00,#0002173,01/01/2024,21:41:49,10.58,3.63,-3.57,15.43,38,-0.941237,1.4e-005,-0.880919,0.000224,-2.13,-2.612,5730,1914,206.361,65.249,14.806,34.957,35.706,42.385,6.679,903.5,678.2,390,14.8369,3.71044,0.205,29.8821,1,Jan,2024,21:44:43,7.8885729636753,,,0.12,1704145202,2,2,2,2,2,9,9
2024-01-01 22:00:02+00:00,#0002174,01/01/2024,22:01:49,10.56,3.63,-3.57,15.43,38,-0.941386,9e-006,-0.880802,0.000219,-9.28,-2.623,5730,1914,205.118,64.863,14.811,35.026,35.775,42.457,6.682,905.8,678.1,389.8,14.8492,3.69909,0.203,29.7711,1,Jan,2024,22:04:43,7.88431206935611,,,1.02666666666667,1704146402,2,2,2,2,2,9,9
2024-01-01 22:20:01+00:00,#0002175,01/01/2024,22:21:48,10.58,3.63,-3.57,15.18,38,-0.941661,1e-005,-0.881066,0.000425,-12.83,-2.628,5730,1914,203.785,64.45,14.816,35.1,35.849,42.529,6.68,908.2,678,389.6,14.8549,3.5702,0.205,28.6175,1,Jan,2024,22:24:42,7.8657787171673,,,6.44,1704147601,2,2,2,2,1,9,9
2024-01-01 22:40:02+00:00,#0002176,01/01/2024,22:41:49,10.58,3.63,-3.57,15.43,38,-0.941741,1.1e-005,-0.880984,0.000102,-15.97,-2.642,5730,1914,201.611,63.774,14.825,35.223,35.972,42.653,6.68,912.3,678,389.4,14.8639,3.6692,0.207,29.4929,1,Jan,2024,22:44:43,7.87393931317375,,,3.34666666666667,1704148802,2,2,2,2,1,9,9
2024-01-01 23:00:02+00:00,#0002177,01/01/2024,23:01:49,10.57,3.63,-3.57,15.43,38,-0.94184,1.3e-005,-0.880935,0.000206,-6.25,-2.627,5730,1914,199.475,63.11,14.834,35.345,36.094,42.78,6.686,916.2,677.9,389.1,14.8763,3.68855,0.207,29.6563,1,Jan,2024,23:04:42,7.8746640595538,,,2.92,1704150002,2,2,2,2,1,9,9
2024-01-01 23:20:02+00:00,#0002178,01/01/2024,23:21:49,10.56,3.63,-3.57,15.18,38,-0.941847,1.2e-005,-0.880774,0.000425,-2.56,-2.586,5730,1914,201.521,63.769,14.842,35.221,35.97,42.651,6.681,912.1,677.9,388.8,14.8865,3.67889,0.209,29.5623,1,Jan,2024,23:24:43,7.8768717836223,,,5.21333333333333,1704151202,2,2,2,2,1,9,9
2024-01-01 23:40:02+00:00,#0002179,01/01/2024,23:41:49,10.58,3.63,-3.57,15.3,38,-0.94182,1.5e-005,-0.880637,0.000207,-8.9,-2.65,5730,1914,205.707,65.104,14.849,34.975,35.724,42.408,6.684,904.1,677.7,388.6,14.8931,3.74072,0.21,30.1098,1,Jan,2024,23:44:43,7.8837330688268,,,1.41333333333333,1704152402,2,2,2,2,2,9,9
2024-01-02 00:00:02+00:00,#0002180,01/02/2024,00:01:49,10.58,3.63,-3.58,15.43,38,-0.941944,1.1e-005,-0.880605,0.00017,-19.69,-2.535,5730,1914,207.418,65.655,14.857,34.874,35.623,42.31,6.687,900.8,677.7,388.3,14.901,3.71557,0.214,29.8788,2,Jan,2024,00:04:43,7.87617646821838,,,1.21333333333333,1704153602,2,2,2,2,2,9,9
2024-01-02 00:20:01+00:00,#0002181,01/02/2024,00:21:48,10.56,3.63,-3.57,15.43,38,-0.941835,1.3e-005,-0.880201,0.000157,-0.28,-2.593,5730,1914,206.455,65.348,14.854,34.93,35.679,42.366,6.686,902.7,677.6,388.4,14.8961,3.69375,0.214,29.6877,2,Jan,2024,00:24:42,7.87522200440463,,,0.146666666666667,1704154801,2,2,2,2,2,9,9
2024-01-02 00:40:02+00:00,#0002182,01/02/2024,00:41:49,10.59,3.63,-3.57,15.56,38,-0.94194,1.7e-005,-0.880195,0.000149,-7.18,-2.587,5730,1914,209.388,66.274,14.853,34.765,35.514,42.202,6.688,897.2,677.6,388.5,14.8955,3.72692,0.212,29.9845,2,Jan,2024,00:44:43,7.8758749752669,,,5.81333333333333,1704156002,2,2,2,2,1,9,9